Location: Bachas
(43.2439°N, 0.9375°E)
Time: 02:50:04
(UTC+00:00)

Cosmos 2061 Rocket - Pass Details

Date: 18 February 2020
Orbit: 965 x 1014 km, 82.9° (Epoch: 03 April)

Event Time Altitude Azimuth Distance (km) Brightness Sun altitude
Rises 05:31:03 0° 353° (N) 3,710 6.9 -15.2°
Reaches altitude 10° 05:33:36 10° 354° (N) 2,751 6.3 -14.7°
Maximum altitude 05:39:55 79° 82° (E) 997 4.2 -13.5°
Drops below altitude 10° 05:46:07 10° 169° (S) 2,703 6.5 -12.4°
Sets 05:48:36 0° 171° (S) 3,642 7.2 -12.0°
